Wheeling, WV

1:40 AM EST on November 25, 2017 (GMT -0500)
Wheeling-Ohio County

Weather History for KHLG - February, 2013

Change the Weather History Date:

Saturday, February 16, 2013

  Actual Average Record
Temperature  
Mean Temperature 24 °F 32 °F  
Max Temperature 28 °F 40 °F 65 °F (1984)
Min Temperature 20 °F 24 °F -7 °F (2015)
Degree Days  
Heating Degree Days 41 33  
Month to date heating degree days 566 546  
Since 1 July heating degree days 3597 3788  
Cooling Degree Days 0    
Month to date cooling degree days 0  
Year to date cooling degree days 0  
Moisture  
Dew Point 16 °F    
Average Humidity 69    
Maximum Humidity 88    
Minimum Humidity 50    
Precipitation  
Precipitation T in 0.07 in 0.92 in (1989)
Month to date precipitation 0.64 1.21  
Sea Level Pressure  
Sea Level Pressure 30.00 in    
Wind  
Wind Speed 5 mph (West)    
Max Wind Speed 18 mph    
Max Gust Speed 23 mph    
Visibility 8 miles    
Events Snow    
T = Trace of Precipitation, MM = Missing Value Source: NWS Daily Summary

Daily Weather History Graph

Daily Weather History Graph

Search for Another Location

Airport or City:

Trip Planner

Search our weather history database for the weather conditions in past years. The results will help you decide how hot, cold, wet, or windy it might be!

Date:

Astronomy

Feb. 16, 2013 Rise Set
Actual Time 7:14 AM EST 5:59 PM EST
Civil Twilight 6:46 AM EST 6:27 PM EST
Nautical Twilight 6:14 AM EST 6:59 PM EST
Astronomical Twilight 5:43 AM EST 7:30 PM EST
Moon 10:25 AM EST (2/16) No Moon Set
Length of Visible Light 11h 41m
Length of Day
10h 45m
Waxing Crescent, 39% of the Moon is Illuminated
Feb 16
Waxing Crescent
Feb 17
First Quarter
Feb 25
Full
Mar 4
Last Quarter
Mar 11
New

Hourly Weather History & Observations

Time (EST) Temp. Windchill Dew Point Humidity Pressure Visibility Wind Dir Wind Speed Gust Speed Precip Events Conditions
12:17 AM 24.8 °F 17.9 °F 21.2 °F 86% 30.04 in 2.5 mi NW 5.8 mph - 0.00 in Snow Light Snow
12:22 AM 24.8 °F 17.9 °F 21.2 °F 86% 30.04 in 3.0 mi NW 5.8 mph - 0.00 in Snow Light Snow
12:45 AM 24.8 °F 19.1 °F 21.2 °F 86% 30.04 in 4.0 mi WNW 4.6 mph - 0.00 in Snow Light Snow
12:53 AM 25.0 °F 19.3 °F 21.9 °F 88% 30.09 in 5.0 mi NW 4.6 mph - 0.00 in Snow Light Snow
1:53 AM 24.1 °F 19.7 °F 21.0 °F 88% 30.09 in 9.0 mi West 3.5 mph - 0.00 in   Mostly Cloudy
2:53 AM 24.1 °F 18.2 °F 21.0 °F 88% 30.07 in 10.0 mi WNW 4.6 mph - 0.00 in   Overcast
3:53 AM 23.0 °F 17.0 °F 19.0 °F 85% 30.06 in 10.0 mi WNW 4.6 mph - N/A   Overcast
4:53 AM 23.0 °F 17.0 °F 19.0 °F 85% 30.06 in 10.0 mi NW 4.6 mph - N/A   Overcast
5:53 AM 23.0 °F - 16.0 °F 74% 30.06 in 10.0 mi Calm Calm - N/A   Overcast
6:53 AM 23.0 °F - 15.1 °F 72% 30.06 in 10.0 mi Calm Calm - N/A   Overcast
7:53 AM 23.0 °F - 16.0 °F 74% 30.06 in 10.0 mi Calm Calm - N/A   Overcast
8:53 AM 24.1 °F - 17.1 °F 75% 30.06 in 10.0 mi Calm Calm - N/A   Overcast
9:53 AM 25.0 °F 19.3 °F 16.0 °F 69% 30.06 in 10.0 mi West 4.6 mph - N/A   Overcast
10:53 AM 27.0 °F 21.6 °F 16.0 °F 63% 30.05 in 10.0 mi WNW 4.6 mph - N/A   Overcast
11:53 AM 25.0 °F 18.1 °F 12.9 °F 60% 30.03 in 10.0 mi West 5.8 mph - N/A   Mostly Cloudy
12:53 PM 26.1 °F 18.4 °F 12.0 °F 55% 30.01 in 10.0 mi West 6.9 mph - N/A   Mostly Cloudy
1:53 PM 26.1 °F 16.8 °F 12.9 °F 58% 29.99 in 10.0 mi West 9.2 mph - N/A   Overcast
2:53 PM 27.0 °F 18.7 °F 12.0 °F 53% 29.99 in 10.0 mi WSW 8.1 mph - N/A   Overcast
3:53 PM 26.1 °F 16.8 °F 12.0 °F 55% 29.99 in 10.0 mi West 9.2 mph - N/A   Overcast
4:53 PM 27.0 °F 18.7 °F 12.0 °F 53% 29.99 in 10.0 mi WSW 8.1 mph - N/A   Overcast
5:53 PM 26.1 °F 19.4 °F 10.9 °F 53% 29.99 in 10.0 mi WSW 5.8 mph - N/A   Overcast
6:53 PM 24.1 °F - 12.0 °F 60% 29.99 in 10.0 mi Calm Calm - N/A   Partly Cloudy
7:53 PM 24.1 °F - 12.9 °F 62% 29.99 in 10.0 mi Calm Calm - N/A   Overcast
8:22 PM 23.0 °F 9.6 °F 17.6 °F 80% 29.93 in 2.0 mi WSW 16.1 mph 23.0 mph 0.00 in Snow Light Snow
8:28 PM 21.2 °F 10.9 °F 17.6 °F 86% 29.93 in 0.8 mi WSW 9.2 mph 23.0 mph 0.00 in Snow Light Snow
8:43 PM 21.2 °F 11.7 °F 19.4 °F 93% 29.93 in 2.0 mi West 8.1 mph - 0.00 in Snow Light Snow
8:51 PM 21.2 °F 10.9 °F 17.6 °F 86% 29.93 in 9.0 mi West 9.2 mph - 0.00 in   Overcast
8:53 PM 21.9 °F 10.4 °F 18.0 °F 85% 29.99 in 9.0 mi West 11.5 mph - 0.00 in   Overcast
9:05 PM 21.2 °F 12.6 °F 17.6 °F 86% 29.93 in 3.0 mi West 6.9 mph - 0.00 in Snow Light Snow
9:09 PM 21.2 °F 9.5 °F 19.4 °F 93% 29.93 in 2.0 mi WNW 11.5 mph 17.3 mph 0.00 in Snow Light Snow
9:15 PM 21.2 °F 6.8 °F 17.6 °F 86% 29.93 in 3.0 mi West 17.3 mph 21.9 mph 0.00 in Snow Light Snow
9:53 PM 21.9 °F 12.5 °F 17.1 °F 82% 29.99 in 10.0 mi WNW 8.1 mph - 0.00 in   Mostly Cloudy
10:05 PM 21.2 °F 12.6 °F 17.6 °F 86% 29.93 in 10.0 mi West 6.9 mph - N/A   Mostly Cloudy
10:46 PM 21.2 °F 13.6 °F 15.8 °F 80% 29.93 in 10.0 mi WNW 5.8 mph - N/A   Mostly Cloudy
10:53 PM 21.0 °F 8.6 °F 15.1 °F 78% 29.99 in 10.0 mi West 12.7 mph 16.1 mph N/A   Overcast
11:09 PM 21.2 °F 14.9 °F 15.8 °F 80% 29.93 in 10.0 mi West 4.6 mph - N/A   Overcast
11:29 PM 19.4 °F 7.2 °F 14.0 °F 80% 29.93 in 10.0 mi West 11.5 mph 17.3 mph N/A   Overcast
11:53 PM 19.9 °F 7.9 °F 14.0 °F 78% 29.99 in 10.0 mi WNW 11.5 mph 16.1 mph N/A   Overcast